TimeEET,TemperatureF,Dew PointF,Humidity,Sea Level PressureIn,VisibilityMPH,Wind Direction,Wind SpeedMPH,Gust SpeedMPH,PrecipitationIn,Events,Conditions,WindDirDegrees,DateUTC
12:50 AM,21.2,15.8,80,30.24,-9999.0,WSW,1.2,-,N/A,,Clear,250,2014-02-19 22:50:00
1:50 AM,17.6,12.2,79,30.21,-9999.0,West,3.5,-,N/A,,Clear,280,2014-02-19 23:50:00
2:00 AM,17,14,82,,6,West,3.5,,,,,280,2014-02-20 00:00:00
2:50 AM,19.4,14.0,80,30.21,-9999.0,Variable,1.2,-,N/A,,Clear,0,2014-02-20 00:50:00
3:50 AM,21.2,14.0,74,30.21,-9999.0,South,3.5,-,N/A,,Clear,180,2014-02-20 01:50:00
4:50 AM,23.0,14.0,68,30.21,-9999.0,SSW,4.6,-,N/A,,Clear,210,2014-02-20 02:50:00
5:00 AM,23,15,59,,6,SSW,4.6,,,,,210,2014-02-20 03:00:00
5:50 AM,21.2,15.8,80,30.21,-9999.0,SW,6.9,-,N/A,,Clear,220,2014-02-20 03:50:00
6:50 AM,24.8,17.6,74,30.21,-9999.0,SW,8.1,-,N/A,,Clear,230,2014-02-20 04:50:00
7:50 AM,23.0,15.8,74,30.24,-9999.0,SSW,4.6,-,N/A,,Clear,210,2014-02-20 05:50:00
8:00 AM,24,16,61,,6,SSW,4.6,,,,,210,2014-02-20 06:00:00
8:50 AM,32.0,21.2,64,30.21,-9999.0,SSW,3.5,-,N/A,,Clear,200,2014-02-20 06:50:00
9:50 AM,37.4,21.2,52,30.21,6.2,WSW,2.3,-,N/A,,Partly Cloudy,240,2014-02-20 07:50:00
10:50 AM,37.4,24.8,60,30.21,6.2,WSW,4.6,-,N/A,,Partly Cloudy,250,2014-02-20 08:50:00
11:00 AM,38,25,47,,6,WSW,4.6,,,,Scattered Clouds,250,2014-02-20 09:00:00
11:50 AM,37.4,26.6,65,30.18,6.2,WSW,12.7,-,N/A,,Partly Cloudy,250,2014-02-20 09:50:00
12:50 PM,37.4,24.8,60,30.18,6.2,West,11.5,-,N/A,,Partly Cloudy,260,2014-02-20 10:50:00
1:50 PM,39.2,23.0,52,30.18,6.2,WNW,9.2,-,N/A,,Partly Cloudy,290,2014-02-20 11:50:00
2:00 PM,40,22,36,,6,WNW,9.2,,,,Scattered Clouds,290,2014-02-20 12:00:00
2:50 PM,39.2,24.8,56,30.18,6.2,West,4.6,-,N/A,,Partly Cloudy,270,2014-02-20 12:50:00
3:50 PM,37.4,24.8,60,30.18,6.2,South,5.8,-,N/A,,Partly Cloudy,190,2014-02-20 13:50:00
4:50 PM,32.0,23.0,69,30.18,6.2,South,8.1,-,N/A,,Partly Cloudy,190,2014-02-20 14:50:00
5:00 PM,32,22,56,,6,South,8.1,,,,Scattered Clouds,190,2014-02-20 15:00:00
5:50 PM,30.2,23.0,75,30.18,6.2,SSW,12.7,-,N/A,,Partly Cloudy,200,2014-02-20 15:50:00
6:50 PM,28.4,21.2,74,30.18,-9999.0,SW,4.6,-,N/A,,Clear,230,2014-02-20 16:50:00
7:50 PM,28.4,19.4,69,30.18,-9999.0,Variable,2.3,-,N/A,,Clear,0,2014-02-20 17:50:00
8:00 PM,28,18,56,,6,South,2.3,,,,,180,2014-02-20 18:00:00
8:50 PM,30.2,19.4,64,30.18,-9999.0,WSW,3.5,-,N/A,,Clear,240,2014-02-20 18:50:00
9:50 PM,28.4,19.4,69,30.18,-9999.0,SSW,4.6,-,N/A,,Clear,210,2014-02-20 19:50:00
10:50 PM,26.6,19.4,74,30.15,-9999.0,SW,6.9,-,N/A,,Clear,220,2014-02-20 20:50:00
11:00 PM,26,18,62,,6,SW,6.9,,,,,220,2014-02-20 21:00:00
11:50 PM,23.0,17.6,80,30.15,-9999.0,SSW,11.5,-,N/A,,Clear,210,2014-02-20 21:50:00